This is the latest recevied weather packets stored in our database for station/object AE5EW. If no packets are shown the sender has not sent any weather packets the latest 10 day(s).
| Time | Temp. | Humidity | Pressure | Rain* | Wind** | Luminosity | Snow |
|---|---|---|---|---|---|---|---|
| 1788049258 | 26.67° C | 85% | 1018.3 hPa | 0 mm | - | - | - |
| 1788048957 | 26.67° C | 85% | 1018.2 hPa | 0 mm | - | - | - |
| 1788048653 | 26.67° C | 84% | 1018.2 hPa | 0 mm | - | - | - |
| 1788048350 | 27.22° C | 83% | 1018.3 hPa | 0 mm | - | - | - |
| 1788048045 | 27.22° C | 82% | 1018.1 hPa | 0 mm | - | - | - |
| 1788047742 | 27.78° C | 81% | 1018.4 hPa | 0 mm | - | - | - |
| 1788047437 | 27.78° C | 81% | 1018.5 hPa | 0 mm | - | - | - |
| 1788047132 | 27.78° C | 81% | 1018.4 hPa | 0 mm | - | - | - |
| 1788046833 | 27.78° C | 80% | 1018.5 hPa | 0 mm | - | - | - |
| 1788046531 | 27.78° C | 80% | 1018.4 hPa | 0 mm | - | - | - |
| 1788046227 | 27.78° C | 80% | 1018.8 hPa | 0 mm | - | - | - |
| 1788045924 | 28.33° C | 79% | 1018.6 hPa | 0 mm | - | - | - |
| 1788045621 | 28.33° C | 80% | 1018.6 hPa | 0 mm | - | - | - |
| 1788045320 | 28.33° C | 78% | 1018.6 hPa | 0 mm | - | - | - |
| 1788045016 | 28.33° C | 79% | 1018.5 hPa | 0 mm | - | - | - |
| 1788044714 | 28.89° C | 78% | 1018.5 hPa | 0 mm | - | - | - |
| 1788044410 | 28.89° C | 78% | 1018.6 hPa | 0 mm | - | - | - |
| 1788044105 | 29.44° C | 76% | 1018.4 hPa | 0 mm | - | - | - |
| 1788043801 | 28.89° C | 76% | 1018.5 hPa | 0 mm | - | - | - |
| 1788043501 | 29.44° C | 74% | 1018.4 hPa | 0 mm | - | - | - |
| 1788043195 | 29.44° C | 75% | 1018.4 hPa | 0 mm | - | - | - |
| 1788042890 | 29.44° C | 75% | 1018.4 hPa | 0 mm | - | - | - |
| 1788042590 | 29.44° C | 76% | 1018.1 hPa | 0 mm | - | - | - |
| 1788042290 | 30° C | 74% | 1018.1 hPa | 0 mm | - | - | - |
| 1788041986 | 30.56° C | 73% | 1018.2 hPa | 0 mm | - | - | - |
* Rain latest hour (hover to see other rain measurements)
** Current wind speed in m/s (hover to see current wind gust speed)